Weather History for Mayfld Grav Cnty AP, Mayfield, KY

Change the Weather History Date:

Saturday, January 4, 2014

  Actual Average (KPAH) Record (KPAH)
Temperature  
Mean Temperature 33 °F 34 °F  
Max Temperature 42 °F 43 °F 70 °F (1939)
Min Temperature 24 °F 26 °F 2 °F (1959)
Degree Days  
Heating Degree Days 32 31  
Month to date heating degree days 121  
Since 1 July heating degree days 1752  
Cooling Degree Days 0 0  
Month to date cooling degree days 0  
Year to date cooling degree days 0  
Moisture  
Dew Point 19 °F    
Average Humidity 52    
Maximum Humidity 70    
Minimum Humidity 39    
Precipitation  
Precipitation 0.00 in 0.13 in 2.47 in (1950)
Month to date precipitation 0.50  
Year to date precipitation 0.50  
Snow  
Snow 0.00 in 0.10 in 1.00 in (1972)
Month to date snowfall 0.4  
Since 1 July snowfall 2.7  
Snow Depth -    
Sea Level Pressure  
Sea Level Pressure 30.11 in    
Wind  
Wind Speed 12 mph (South)    
Max Wind Speed 23 mph    
Max Gust Speed 29 mph    
Visibility 10 miles    
Events      
T = Trace of Precipitation, MM = Missing Value Source: NWS Daily Summary

Daily Weather History Graph

Daily Weather History Graph

Search for Another Location

Airport:

Trip Planner

Search our weather history database for the weather conditions in past years. The results will help you decide how hot, cold, wet, or windy it might be!

Date:

Astronomy

Jan. 04, 2014 Rise Set
Actual Time 7:07 AM CST 4:51 PM CST
Civil Twilight 6:38 AM CST 5:20 PM CST
Nautical Twilight 6:06 AM CST 5:52 PM CST
Astronomical Twilight 5:35 AM CST 6:23 PM CST
Moon 9:19 AM CST (1/4) 9:04 PM CST (1/4)
Length of Visible Light 10h 41m
Length of Day
9h 44m
Waxing Crescent, 15% of the Moon is Illuminated
Jan 4
Waxing Crescent
Jan 7
First Quarter
Jan 15
Full
Jan 23
Last Quarter
Jan 30
New

Hourly Weather History & Observations

Time (CST) Temp. Windchill Dew Point Humidity Pressure Visibility Wind Dir Wind Speed Gust Speed Precip Events Conditions
12:15 AM 24.8 °F 15.3 °F 14.0 °F 64% 30.22 in 10.0 mi South 9.2 mph - N/A   Clear
12:35 AM 26.6 °F 16.2 °F 14.0 °F 59% 30.22 in 10.0 mi South 11.5 mph 17.3 mph N/A   Clear
12:55 AM 26.6 °F 16.8 °F 14.0 °F 59% 30.22 in 10.0 mi South 10.4 mph 16.1 mph N/A   Clear
1:15 AM 26.6 °F 16.8 °F 14.0 °F 59% 30.23 in 10.0 mi South 10.4 mph - N/A   Clear
1:35 AM 26.6 °F 18.2 °F 14.0 °F 59% 30.23 in 10.0 mi South 8.1 mph - N/A   Clear
1:55 AM 24.8 °F 14.6 °F 14.0 °F 64% 30.22 in 10.0 mi South 10.4 mph - N/A   Clear
2:15 AM 26.6 °F 16.2 °F 14.0 °F 59% 30.22 in 10.0 mi South 11.5 mph 16.1 mph N/A   Clear
2:35 AM 26.6 °F 16.2 °F 14.0 °F 59% 30.21 in 10.0 mi South 11.5 mph 17.3 mph N/A   Clear
2:55 AM 26.6 °F 15.2 °F 14.0 °F 59% 30.21 in 10.0 mi South 13.8 mph 21.9 mph N/A   Clear
3:15 AM 26.6 °F 16.2 °F 14.0 °F 59% 30.20 in 10.0 mi South 11.5 mph 19.6 mph N/A   Clear
3:35 AM 26.6 °F 15.2 °F 14.0 °F 59% 30.19 in 10.0 mi South 13.8 mph 17.3 mph N/A   Clear
3:55 AM 26.6 °F 16.8 °F 14.0 °F 59% 30.19 in 10.0 mi South 10.4 mph 21.9 mph N/A   Clear
4:15 AM 28.4 °F 19.7 °F 14.0 °F 55% 30.19 in 10.0 mi South 9.2 mph 17.3 mph N/A   Clear
4:35 AM 28.4 °F 19.7 °F 14.0 °F 55% 30.19 in 10.0 mi SSW 9.2 mph 17.3 mph N/A   Clear
4:55 AM 28.4 °F 18.0 °F 14.0 °F 55% 30.20 in 10.0 mi SSW 12.7 mph 19.6 mph N/A   Clear
5:15 AM 28.4 °F 19.7 °F 14.0 °F 55% 30.20 in 10.0 mi SSW 9.2 mph 17.3 mph N/A   Clear
5:35 AM 28.4 °F 18.5 °F 14.0 °F 55% 30.20 in 10.0 mi South 11.5 mph 18.4 mph N/A   Clear
5:55 AM 28.4 °F 19.7 °F 14.0 °F 55% 30.20 in 10.0 mi SSW 9.2 mph 17.3 mph N/A   Clear
6:15 AM 28.4 °F 18.5 °F 15.8 °F 59% 30.19 in 10.0 mi South 11.5 mph 17.3 mph N/A   Clear
6:35 AM 28.4 °F 19.7 °F 15.8 °F 59% 30.19 in 10.0 mi South 9.2 mph 17.3 mph N/A   Clear
6:55 AM 28.4 °F 18.0 °F 15.8 °F 59% 30.18 in 10.0 mi South 12.7 mph 18.4 mph N/A   Clear
7:15 AM 28.4 °F 17.0 °F 15.8 °F 59% 30.19 in 10.0 mi South 15.0 mph 19.6 mph N/A   Clear
7:35 AM 28.4 °F 18.0 °F 15.8 °F 59% 30.18 in 10.0 mi South 12.7 mph 21.9 mph N/A   Clear
7:55 AM 28.4 °F 16.6 °F 15.8 °F 59% 30.18 in 10.0 mi South 16.1 mph 23.0 mph N/A   Clear
8:15 AM 30.2 °F 20.2 °F 15.8 °F 55% 30.18 in 10.0 mi South 12.7 mph 20.7 mph N/A   Clear
8:35 AM 30.2 °F 18.9 °F 15.8 °F 55% 30.18 in 10.0 mi South 16.1 mph 21.9 mph N/A   Clear
8:55 AM 32.0 °F 20.5 °F 17.6 °F 55% 30.18 in 10.0 mi South 18.4 mph 25.3 mph N/A   Clear
9:15 AM 32.0 °F 20.8 °F 17.6 °F 55% 30.18 in 10.0 mi South 17.3 mph 25.3 mph N/A   Clear
9:35 AM 32.0 °F 21.6 °F 17.6 °F 55% 30.19 in 10.0 mi South 15.0 mph 24.2 mph N/A   Clear
9:55 AM 33.8 °F 23.2 °F 17.6 °F 52% 30.20 in 10.0 mi SSW 17.3 mph 23.0 mph N/A   Clear
10:15 AM 33.8 °F 21.6 °F 17.6 °F 52% 30.18 in 10.0 mi SSW 23.0 mph 27.6 mph N/A   Clear
10:35 AM 35.6 °F 24.5 °F 19.4 °F 52% 30.17 in 10.0 mi South 20.7 mph 28.8 mph N/A   Clear
10:55 AM 35.6 °F 25.9 °F 17.6 °F 48% 30.16 in 10.0 mi SSW 16.1 mph 25.3 mph N/A   Clear
11:15 AM 37.4 °F 28.2 °F 19.4 °F 48% 30.14 in 10.0 mi SSW 16.1 mph 28.8 mph N/A   Clear
11:35 AM 37.4 °F 26.6 °F 17.6 °F 45% 30.13 in 10.0 mi SSW 21.9 mph 26.5 mph N/A   Clear
11:55 AM 37.4 °F 28.2 °F 17.6 °F 45% 30.12 in 10.0 mi SSW 16.1 mph 27.6 mph N/A   Clear
12:15 PM 39.2 °F 31.2 °F 19.4 °F 45% 30.11 in 10.0 mi SSW 13.8 mph - N/A   Clear
12:35 PM 41.0 °F 33.9 °F 21.2 °F 45% 30.10 in 10.0 mi South 12.7 mph 18.4 mph N/A   Clear
12:55 PM 41.0 °F 34.3 °F 19.4 °F 42% 30.09 in 10.0 mi South 11.5 mph 20.7 mph N/A   Clear
1:15 PM 41.0 °F 34.3 °F 21.2 °F 45% 30.08 in 10.0 mi South 11.5 mph 18.4 mph N/A   Clear
1:35 PM 41.0 °F 33.9 °F 19.4 °F 42% 30.07 in 10.0 mi South 12.7 mph - N/A   Clear
1:55 PM 42.8 °F 36.2 °F 19.4 °F 39% 30.07 in 10.0 mi South 12.7 mph 18.4 mph N/A   Clear
2:15 PM 42.8 °F 38.0 °F 19.4 °F 39% 30.07 in 10.0 mi South 8.1 mph 17.3 mph N/A   Clear
2:35 PM 42.8 °F 36.2 °F 19.4 °F 39% 30.06 in 10.0 mi South 12.7 mph 20.7 mph N/A   Scattered Clouds
2:55 PM 42.8 °F 37.0 °F 19.4 °F 39% 30.06 in 10.0 mi South 10.4 mph 17.3 mph N/A   Scattered Clouds
3:15 PM 42.8 °F 35.8 °F 19.4 °F 39% 30.03 in 10.0 mi South 13.8 mph 19.6 mph N/A   Mostly Cloudy
3:35 PM 42.8 °F 36.2 °F 21.2 °F 42% 30.03 in 10.0 mi SSE 12.7 mph - N/A   Overcast
3:55 PM 42.8 °F 36.2 °F 23.0 °F 46% 30.03 in 10.0 mi SSE 12.7 mph 16.1 mph N/A   Overcast
4:15 PM 42.8 °F 36.6 °F 21.2 °F 42% 30.02 in 10.0 mi SSE 11.5 mph 18.4 mph N/A   Overcast
4:35 PM 42.8 °F 36.2 °F 21.2 °F 42% 30.01 in 10.0 mi SSE 12.7 mph 18.4 mph N/A   Overcast
4:55 PM 41.0 °F 33.5 °F 21.2 °F 45% 30.00 in 10.0 mi SSE 13.8 mph 17.3 mph N/A   Overcast
5:15 PM 41.0 °F 33.5 °F 21.2 °F 45% 30.00 in 10.0 mi SSE 13.8 mph 20.7 mph N/A   Mostly Cloudy
5:35 PM 41.0 °F 33.5 °F 19.4 °F 42% 30.00 in 10.0 mi SSE 13.8 mph 20.7 mph N/A   Mostly Cloudy
5:55 PM 41.0 °F 33.5 °F 19.4 °F 42% 29.99 in 10.0 mi South 13.8 mph 20.7 mph N/A   Scattered Clouds
6:15 PM 41.0 °F 32.8 °F 19.4 °F 42% 29.99 in 10.0 mi SSE 16.1 mph 21.9 mph N/A   Clear
6:35 PM 41.0 °F 33.5 °F 21.2 °F 45% 30.00 in 10.0 mi SSE 13.8 mph 18.4 mph N/A   Mostly Cloudy
6:55 PM 41.0 °F 33.9 °F 21.2 °F 45% 29.99 in 10.0 mi South 12.7 mph 18.4 mph N/A   Overcast
7:15 PM 42.8 °F 35.8 °F 21.2 °F 42% 29.99 in 10.0 mi South 13.8 mph 23.0 mph N/A   Overcast
7:35 PM 42.8 °F 37.0 °F 21.2 °F 42% 29.99 in 10.0 mi SSE 10.4 mph 20.7 mph N/A   Overcast
7:55 PM 41.0 °F 35.2 °F 21.2 °F 45% 29.99 in 10.0 mi SSE 9.2 mph 17.3 mph N/A   Overcast
8:15 PM 42.8 °F 38.0 °F 23.0 °F 46% 30.01 in 10.0 mi SSW 8.1 mph - N/A   Overcast
8:35 PM 42.8 °F 37.5 °F 23.0 °F 46% 30.01 in 10.0 mi South 9.2 mph - N/A   Overcast
8:55 PM 42.8 °F 38.0 °F 24.8 °F 49% 30.02 in 10.0 mi SSW 8.1 mph - N/A   Overcast
9:15 PM 42.8 °F 39.3 °F 26.6 °F 53% 30.02 in 10.0 mi South 5.8 mph - N/A   Overcast
9:35 PM 41.0 °F 38.0 °F 26.6 °F 57% 30.02 in 10.0 mi South 4.6 mph - N/A   Overcast
9:55 PM 41.0 °F 37.1 °F 26.6 °F 57% 30.02 in 10.0 mi South 5.8 mph - N/A   Overcast
10:15 PM 41.0 °F 36.4 °F 28.4 °F 61% 30.02 in 10.0 mi South 6.9 mph - N/A   Overcast
10:35 PM 41.0 °F 36.4 °F 30.2 °F 65% 30.02 in 10.0 mi South 6.9 mph - N/A   Overcast
10:55 PM 42.8 °F 37.5 °F 32.0 °F 66% 30.01 in 10.0 mi South 9.2 mph - N/A   Overcast
11:15 PM 42.8 °F 36.2 °F 32.0 °F 66% 30.00 in 10.0 mi South 12.7 mph 16.1 mph N/A   Overcast
11:35 PM 42.8 °F 38.6 °F 32.0 °F 66% 30.00 in 10.0 mi South 6.9 mph - N/A   Overcast
11:55 PM 42.8 °F 37.5 °F 33.8 °F 70% 30.00 in 10.0 mi South 9.2 mph - N/A   Overcast